{"data":{"norad_id":53159,"epoch":"2026-09-19T18:40:53.271840Z","epoch_age_seconds":134566,"freshness":"FRESH","line1":"1 53159U 22083AD  26262.77839435 -.00000757  00000+0 -10822-4 0  9999","line2":"2 53159  53.1613   7.1177 0000823  74.4116 285.6978 15.35391780230735","mean_motion":15.3539178,"eccentricity":8.23e-5,"inclination_deg":53.1613,"raan_deg":7.1177,"arg_perigee_deg":74.4116,"mean_anomaly_deg":285.6978,"bstar":-1.0822e-5,"rev_number":23073,"period_min":93.787137508317,"perigee_km":459.19428922756,"apogee_km":460.31980658785,"semimajor_km":6837.8940479077,"source":"CELESTRAK","updated_at":"2026-09-20T09:00:40.183223Z"}}